Time,TemperatureF,DewpointF,PressureIn,WindDirection,WindDirectionDegrees,WindSpeedMPH,WindSpeedGustMPH,Humidity,HourlyPrecipIn,Conditions,Clouds,dailyrainin,SolarRadiationWatts/m^2,SoftwareType,DateUTC
2013-02-15 00:01:00,37.0,33.0,-100.00,SE,143,5.0,7.0,86,0.00,,,0.00,0.000000,,2013-02-15 08:01:00,
2013-02-15 00:11:00,37.0,33.0,-100.00,SE,143,5.0,7.0,86,0.00,,,0.00,0.000000,,2013-02-15 08:11:00,
2013-02-15 00:32:00,38.0,33.0,-100.00,SSE,149,4.0,5.0,81,0.00,,,0.00,0.000000,,2013-02-15 08:32:00,
2013-02-15 00:42:00,38.0,33.0,-100.00,SSE,149,4.0,5.0,81,0.00,,,0.00,0.000000,,2013-02-15 08:42:00,
2013-02-15 00:53:00,38.0,33.0,-100.00,SSE,149,4.0,5.0,81,0.00,,,0.00,0.000000,,2013-02-15 08:53:00,
2013-02-15 01:01:00,38.0,33.0,-100.00,SSE,149,4.0,5.0,81,0.00,,,0.00,0.000000,,2013-02-15 09:01:00,
2013-02-15 01:12:00,38.0,33.0,-100.00,SSE,149,4.0,5.0,81,0.00,,,0.00,0.000000,,2013-02-15 09:12:00,
2013-02-15 01:42:00,38.0,32.0,-100.00,SSE,168,4.0,6.0,78,0.00,,,-99.99,0.000000,,2013-02-15 09:42:00,
2013-02-15 01:52:00,38.0,32.0,-100.00,SSE,168,4.0,6.0,78,0.00,,,-99.99,0.000000,,2013-02-15 09:52:00,
2013-02-15 02:01:00,38.0,32.0,-100.00,SSE,168,4.0,6.0,78,0.00,,,-99.99,0.000000,,2013-02-15 10:01:00,
2013-02-15 02:11:00,38.0,32.0,-100.00,SSE,168,4.0,6.0,78,0.00,,,-99.99,0.000000,,2013-02-15 10:11:00,
2013-02-15 02:42:00,37.0,33.0,-100.00,SE,128,3.0,6.0,85,0.00,,,0.00,0.000000,,2013-02-15 10:42:00,
2013-02-15 02:52:00,37.0,33.0,-100.00,SE,128,3.0,6.0,85,0.00,,,0.00,0.000000,,2013-02-15 10:52:00,
2013-02-15 03:01:00,37.0,33.0,-100.00,SE,128,3.0,6.0,85,0.00,,,0.00,0.000000,,2013-02-15 11:01:00,
2013-02-15 03:11:00,37.0,33.0,-100.00,SE,128,3.0,6.0,85,0.00,,,0.00,0.000000,,2013-02-15 11:11:00,
2013-02-15 03:32:00,36.0,30.0,-100.00,SE,145,6.0,7.0,80,0.00,,,0.00,0.000000,,2013-02-15 11:32:00,
2013-02-15 03:42:00,36.0,30.0,-100.00,SE,145,6.0,7.0,80,0.00,,,0.00,0.000000,,2013-02-15 11:42:00,
2013-02-15 03:52:00,36.0,30.0,-100.00,SE,145,6.0,7.0,80,0.00,,,0.00,0.000000,,2013-02-15 11:52:00,
2013-02-15 04:01:00,36.0,30.0,-100.00,SE,145,6.0,7.0,80,0.00,,,0.00,0.000000,,2013-02-15 12:01:00,
2013-02-15 04:11:00,36.0,30.0,-100.00,SE,145,6.0,7.0,80,0.00,,,0.00,0.000000,,2013-02-15 12:11:00,
2013-02-15 04:32:00,38.0,32.0,-100.00,SSE,150,4.0,7.0,80,0.00,,,0.00,0.000000,,2013-02-15 12:32:00,
2013-02-15 04:42:00,38.0,32.0,-100.00,SSE,150,4.0,7.0,80,0.00,,,0.00,0.000000,,2013-02-15 12:42:00,
2013-02-15 04:52:00,38.0,32.0,-100.00,SSE,150,4.0,7.0,80,0.00,,,0.00,0.000000,,2013-02-15 12:52:00,
2013-02-15 05:02:00,38.0,32.0,-100.00,SSE,150,4.0,7.0,80,0.00,,,0.00,0.000000,,2013-02-15 13:02:00,
2013-02-15 05:11:00,38.0,32.0,-100.00,SSE,150,4.0,7.0,80,0.00,,,0.00,0.000000,,2013-02-15 13:11:00,
2013-02-15 05:42:00,36.0,31.0,-100.00,SSE,153,4.0,5.0,83,0.00,,,-99.99,0.000000,,2013-02-15 13:42:00,
2013-02-15 05:52:00,36.0,31.0,-100.00,SSE,153,4.0,5.0,83,0.00,,,-99.99,0.000000,,2013-02-15 13:52:00,
2013-02-15 06:01:00,36.0,31.0,-100.00,SSE,153,4.0,5.0,83,0.00,,,-99.99,0.000000,,2013-02-15 14:01:00,
2013-02-15 06:11:00,36.0,31.0,-100.00,SSE,153,4.0,5.0,83,0.00,,,-99.99,0.000000,,2013-02-15 14:11:00,
2013-02-15 06:42:00,38.0,32.0,-100.00,SSE,168,3.0,5.0,78,0.00,,,0.00,0.000000,,2013-02-15 14:42:00,
2013-02-15 06:52:00,38.0,32.0,-100.00,SSE,168,3.0,5.0,78,0.00,,,0.00,0.000000,,2013-02-15 14:52:00,
2013-02-15 07:01:00,38.0,32.0,-100.00,SSE,168,3.0,5.0,78,0.00,,,0.00,0.000000,,2013-02-15 15:01:00,
2013-02-15 07:11:00,38.0,32.0,-100.00,SSE,168,3.0,5.0,78,0.00,,,0.00,0.000000,,2013-02-15 15:11:00,
2013-02-15 07:32:00,35.0,30.0,-100.00,SE,139,5.0,7.0,82,0.00,,,0.00,2.000000,,2013-02-15 15:32:00,
2013-02-15 07:42:00,35.0,30.0,-100.00,SE,139,5.0,7.0,82,0.00,,,0.00,2.000000,,2013-02-15 15:42:00,
2013-02-15 07:52:00,35.0,30.0,-100.00,SE,139,5.0,7.0,82,0.00,,,0.00,2.000000,,2013-02-15 15:52:00,
2013-02-15 08:01:00,35.0,30.0,-100.00,SE,139,5.0,7.0,82,0.00,,,0.00,2.000000,,2013-02-15 16:01:00,
2013-02-15 08:11:00,35.0,30.0,-100.00,SE,139,5.0,7.0,82,0.00,,,0.00,2.000000,,2013-02-15 16:11:00,
2013-02-15 08:32:00,39.0,32.0,-100.00,SE,130,2.0,5.0,76,0.00,,,0.00,35.000000,,2013-02-15 16:32:00,
2013-02-15 08:43:00,39.0,32.0,-100.00,SE,130,2.0,5.0,76,0.00,,,0.00,35.000000,,2013-02-15 16:43:00,
2013-02-15 08:52:00,39.0,32.0,-100.00,SE,130,2.0,5.0,76,0.00,,,0.00,35.000000,,2013-02-15 16:52:00,
2013-02-15 09:01:00,39.0,32.0,-100.00,SE,130,2.0,5.0,76,0.00,,,0.00,35.000000,,2013-02-15 17:01:00,
2013-02-15 09:11:00,39.0,32.0,-100.00,SE,130,2.0,5.0,76,0.00,,,0.00,35.000000,,2013-02-15 17:11:00,
2013-02-15 09:32:00,45.0,34.0,-100.00,NNE,27,3.0,5.0,64,0.00,,,0.00,295.000000,,2013-02-15 17:32:00,
2013-02-15 09:42:00,45.0,34.0,-100.00,NNE,27,3.0,5.0,64,0.00,,,0.00,295.000000,,2013-02-15 17:42:00,
2013-02-15 09:52:00,45.0,34.0,-100.00,NNE,27,3.0,5.0,64,0.00,,,0.00,295.000000,,2013-02-15 17:52:00,
2013-02-15 10:01:00,45.0,34.0,-100.00,NNE,27,3.0,5.0,64,0.00,,,0.00,295.000000,,2013-02-15 18:01:00,
2013-02-15 10:11:00,45.0,34.0,-100.00,NNE,27,3.0,5.0,64,0.00,,,0.00,295.000000,,2013-02-15 18:11:00,
2013-02-15 10:42:00,47.0,35.0,-100.00,NNE,19,4.0,6.0,63,0.00,,,0.00,474.000000,,2013-02-15 18:42:00,
2013-02-15 10:52:00,47.0,35.0,-100.00,NNE,19,4.0,6.0,63,0.00,,,0.00,474.000000,,2013-02-15 18:52:00,
2013-02-15 11:01:00,47.0,35.0,-100.00,NNE,19,4.0,6.0,63,0.00,,,0.00,474.000000,,2013-02-15 19:01:00,
2013-02-15 11:11:00,47.0,35.0,-100.00,NNE,19,4.0,6.0,63,0.00,,,0.00,474.000000,,2013-02-15 19:11:00,
2013-02-15 11:42:00,49.0,35.0,-100.00,NNE,19,5.0,7.0,59,0.00,,,0.00,601.000000,,2013-02-15 19:42:00,
2013-02-15 11:52:00,49.0,35.0,-100.00,NNE,19,5.0,7.0,59,0.00,,,0.00,601.000000,,2013-02-15 19:52:00,
2013-02-15 12:01:00,49.0,35.0,-100.00,NNE,19,5.0,7.0,59,0.00,,,0.00,601.000000,,2013-02-15 20:01:00,
2013-02-15 12:11:00,49.0,35.0,-100.00,NNE,19,5.0,7.0,59,0.00,,,0.00,601.000000,,2013-02-15 20:11:00,
2013-02-15 12:42:00,51.0,36.0,-100.00,NNE,12,5.0,7.0,56,0.00,,,0.00,675.000000,,2013-02-15 20:42:00,
2013-02-15 12:52:00,51.0,36.0,-100.00,NNE,12,5.0,7.0,56,0.00,,,0.00,675.000000,,2013-02-15 20:52:00,
2013-02-15 13:01:00,51.0,36.0,-100.00,NNE,12,5.0,7.0,56,0.00,,,0.00,675.000000,,2013-02-15 21:01:00,
2013-02-15 13:11:00,51.0,36.0,-100.00,NNE,12,5.0,7.0,56,0.00,,,0.00,675.000000,,2013-02-15 21:11:00,
2013-02-15 13:42:00,53.0,36.0,-100.00,North,0,5.0,9.0,52,0.00,,,0.00,674.000000,,2013-02-15 21:42:00,
2013-02-15 13:52:00,53.0,36.0,-100.00,North,0,5.0,9.0,52,0.00,,,0.00,674.000000,,2013-02-15 21:52:00,
2013-02-15 14:02:00,53.0,36.0,-100.00,North,0,5.0,9.0,52,0.00,,,0.00,674.000000,,2013-02-15 22:02:00,
2013-02-15 14:11:00,53.0,36.0,-100.00,North,0,5.0,9.0,52,0.00,,,0.00,674.000000,,2013-02-15 22:11:00,
2013-02-15 14:42:00,52.0,36.0,-100.00,NNW,341,6.0,9.0,54,0.00,,,0.00,620.000000,,2013-02-15 22:42:00,
2013-02-15 14:52:00,52.0,36.0,-100.00,NNW,341,6.0,9.0,54,0.00,,,0.00,620.000000,,2013-02-15 22:52:00,
2013-02-15 15:02:00,52.0,36.0,-100.00,NNW,341,6.0,9.0,54,0.00,,,0.00,620.000000,,2013-02-15 23:02:00,
2013-02-15 15:11:00,52.0,36.0,-100.00,NNW,341,6.0,9.0,54,0.00,,,0.00,620.000000,,2013-02-15 23:11:00,
2013-02-15 15:32:00,52.0,35.0,-100.00,North,350,5.0,10.0,53,0.00,,,0.00,503.000000,,2013-02-15 23:32:00,
2013-02-15 15:42:00,52.0,35.0,-100.00,North,350,5.0,10.0,53,0.00,,,0.00,503.000000,,2013-02-15 23:42:00,
2013-02-15 15:52:00,52.0,35.0,-100.00,North,350,5.0,10.0,53,0.00,,,0.00,503.000000,,2013-02-15 23:52:00,
2013-02-15 16:02:00,52.0,35.0,-100.00,North,350,5.0,10.0,53,0.00,,,0.00,503.000000,,2013-02-16 00:02:00,
2013-02-15 16:11:00,52.0,35.0,-100.00,North,350,5.0,10.0,53,0.00,,,0.00,503.000000,,2013-02-16 00:11:00,
2013-02-15 16:32:00,52.0,35.0,-100.00,North,9,4.0,6.0,53,0.00,,,0.00,345.000000,,2013-02-16 00:32:00,
2013-02-15 16:42:00,52.0,35.0,-100.00,North,9,4.0,6.0,53,0.00,,,0.00,345.000000,,2013-02-16 00:42:00,
2013-02-15 16:52:00,52.0,35.0,-100.00,North,9,4.0,6.0,53,0.00,,,0.00,345.000000,,2013-02-16 00:52:00,
2013-02-15 17:02:00,52.0,35.0,-100.00,North,9,4.0,6.0,53,0.00,,,0.00,345.000000,,2013-02-16 01:02:00,
2013-02-15 17:11:00,52.0,35.0,-100.00,North,9,4.0,6.0,53,0.00,,,0.00,345.000000,,2013-02-16 01:11:00,
2013-02-15 17:32:00,49.0,34.0,-100.00,ESE,119,3.0,5.0,56,0.00,,,-99.99,146.000000,,2013-02-16 01:32:00,
2013-02-15 17:42:00,49.0,34.0,-100.00,ESE,119,3.0,5.0,56,0.00,,,-99.99,146.000000,,2013-02-16 01:42:00,
2013-02-15 17:52:00,49.0,34.0,-100.00,ESE,119,3.0,5.0,56,0.00,,,-99.99,146.000000,,2013-02-16 01:52:00,
2013-02-15 18:01:00,49.0,34.0,-100.00,ESE,119,3.0,5.0,56,0.00,,,-99.99,146.000000,,2013-02-16 02:01:00,
2013-02-15 18:11:00,49.0,34.0,-100.00,ESE,119,3.0,5.0,56,0.00,,,-99.99,146.000000,,2013-02-16 02:11:00,
2013-02-15 18:42:00,47.0,29.0,-100.00,SE,138,9.0,14.0,50,0.00,,,0.00,4.000000,,2013-02-16 02:42:00,
2013-02-15 18:52:00,47.0,29.0,-100.00,SE,138,9.0,14.0,50,0.00,,,0.00,4.000000,,2013-02-16 02:52:00,
2013-02-15 19:01:00,47.0,29.0,-100.00,SE,138,9.0,14.0,50,0.00,,,0.00,4.000000,,2013-02-16 03:01:00,
2013-02-15 19:11:00,47.0,29.0,-100.00,SE,138,9.0,14.0,50,0.00,,,0.00,4.000000,,2013-02-16 03:11:00,
2013-02-15 19:42:00,46.0,28.0,-100.00,SE,141,12.0,16.0,50,0.00,,,0.00,0.000000,,2013-02-16 03:42:00,
2013-02-15 19:52:00,46.0,28.0,-100.00,SE,141,12.0,16.0,50,0.00,,,0.00,0.000000,,2013-02-16 03:52:00,
2013-02-15 20:01:00,46.0,28.0,-100.00,SE,141,12.0,16.0,50,0.00,,,0.00,0.000000,,2013-02-16 04:01:00,
2013-02-15 20:11:00,46.0,28.0,-100.00,SE,141,12.0,16.0,50,0.00,,,0.00,0.000000,,2013-02-16 04:11:00,
2013-02-15 20:32:00,45.0,28.0,-100.00,SE,138,10.0,16.0,52,0.00,,,0.00,0.000000,,2013-02-16 04:32:00,
2013-02-15 20:42:00,45.0,28.0,-100.00,SE,138,10.0,16.0,52,0.00,,,0.00,0.000000,,2013-02-16 04:42:00,
2013-02-15 20:52:00,45.0,28.0,-100.00,SE,138,10.0,16.0,52,0.00,,,0.00,0.000000,,2013-02-16 04:52:00,
2013-02-15 21:01:00,45.0,28.0,-100.00,SE,138,10.0,16.0,52,0.00,,,0.00,0.000000,,2013-02-16 05:01:00,
2013-02-15 21:11:00,45.0,28.0,-100.00,SE,138,10.0,16.0,52,0.00,,,0.00,0.000000,,2013-02-16 05:11:00,
2013-02-15 21:32:00,44.0,29.0,-100.00,SSE,148,8.0,14.0,55,0.00,,,0.00,0.000000,,2013-02-16 05:32:00,
2013-02-15 21:42:00,44.0,29.0,-100.00,SSE,148,8.0,14.0,55,0.00,,,0.00,0.000000,,2013-02-16 05:42:00,
2013-02-15 21:52:00,44.0,29.0,-100.00,SSE,148,8.0,14.0,55,0.00,,,0.00,0.000000,,2013-02-16 05:52:00,
2013-02-15 22:01:00,44.0,29.0,-100.00,SSE,148,8.0,14.0,55,0.00,,,0.00,0.000000,,2013-02-16 06:01:00,
2013-02-15 22:11:00,44.0,29.0,-100.00,SSE,148,8.0,14.0,55,0.00,,,0.00,0.000000,,2013-02-16 06:11:00,
2013-02-15 22:42:00,43.0,28.0,-100.00,SSE,152,5.0,11.0,55,0.00,,,0.00,0.000000,,2013-02-16 06:42:00,
2013-02-15 22:52:00,43.0,28.0,-100.00,SSE,152,5.0,11.0,55,0.00,,,0.00,0.000000,,2013-02-16 06:52:00,
2013-02-15 23:02:00,43.0,28.0,-100.00,SSE,152,5.0,11.0,55,0.00,,,0.00,0.000000,,2013-02-16 07:02:00,
2013-02-15 23:11:00,43.0,28.0,-100.00,SSE,152,5.0,11.0,55,0.00,,,0.00,0.000000,,2013-02-16 07:11:00,
2013-02-15 23:32:00,44.0,30.0,-100.00,SE,143,8.0,12.0,58,0.00,,,-99.99,0.000000,,2013-02-16 07:32:00,
2013-02-15 23:42:00,44.0,30.0,-100.00,SE,143,8.0,12.0,58,0.00,,,-99.99,0.000000,,2013-02-16 07:42:00,
2013-02-15 23:53:00,44.0,30.0,-100.00,SE,143,8.0,12.0,58,0.00,,,-99.99,0.000000,,2013-02-16 07:53:00,